Location: Florence
(33.9745°N, 118.2481°W)
Time: 15:22:11
(UTC+00:00)

Cosmos 1607 - Pass Details

Date: 06 December 2023
Orbit: 907 x 995 km, 65.0° (Epoch: 03 March)

Event Time Altitude Azimuth Distance (km) Brightness Sun altitude
Rises 01:28:08 0° 260° (W) 3,616 9.0 -9.3°
Reaches altitude 10° 01:31:57 10° 283° (WNW) 2,693 7.3 -10.0°
Maximum altitude 01:35:25 15° 317° (NW) 2,365 6.3 -10.7°
Drops below altitude 10° 01:38:55 10° 351° (N) 2,730 6.2 -11.4°
Sets 01:42:51 0° 14° (NNE) 3,696 6.7 -12.1°
